Overview Statistics Trail Chart Weather Telemetry Raw packets
 

This is the latest recevied weather packets stored in our database for station/object DN9EM-3. If no packets are shown the sender has not sent any weather packets the latest 10 day(s).

<< 24 25 26 27 28 29 30 >>
Time Temp. Humidity Pressure Rain* Wind** Luminosity Snow
1788189048 16.11° C 85% 1010.7 hPa 0.25 mm - - -
1788188445 16.67° C 82% 1010.8 hPa 0 mm - - -
1788187860 17.22° C 77% 1010.7 hPa 0 mm - - -
1788187240 17.78° C 73% 1010.6 hPa 0 mm - - -
1788186637 18.33° C 74% 1010.4 hPa 0 mm - - -
1788186035 18.89° C 76% 1009.8 hPa 0 mm - - -
1788185432 19.44° C 73% 1009.6 hPa 0 mm - - -
1788184830 18.89° C 73% 1009.6 hPa 0 mm - - -
1788184227 21.11° C 64% 1010.1 hPa 0 mm - - -
1788183625 22.22° C 61% 1009.2 hPa 0 mm - - -
1788183022 22.78° C 60% 1009 hPa 0 mm - - -
1788182428 23.33° C 59% 1009 hPa 0 mm - - -
1788181817 24.44° C 57% 1009 hPa 0 mm - - -
1788181275 24.44° C 57% 1009.1 hPa 0 mm - - -
1788180672 23.89° C 59% 1009.1 hPa 0 mm - - -
1788180069 23.33° C 60% 1009.1 hPa 0 mm - - -
1788179467 23.89° C 59% 1009.1 hPa 0 mm - - -
1788178864 23.33° C 60% 1009.1 hPa 0 mm - - -
1788178262 23.89° C 60% 1009.1 hPa 0 mm - - -
1788177659 23.89° C 60% 1009.2 hPa 0 mm - - -
1788177057 22.78° C 60% 1009.2 hPa 0 mm - - -
1788176454 23.89° C 60% 1009.3 hPa 0 mm - - -
1788175852 23.33° C 62% 1009.3 hPa 0 mm - - -
1788175249 23.33° C 63% 1009.4 hPa 0 mm - - -
1788174646 22.78° C 64% 1009.5 hPa 0 mm - - -

* Rain latest hour (hover to see other rain measurements)
** Current wind speed in m/s (hover to see current wind gust speed)